Preview of NWS' New Version of Forecast
This preview is not operational and should not be used for support decisions.

Regional Weather Roundup (RWR)

Issued by National Weather Service (NWS)

                            
000
ASUS43 KMKX 211801
RWRWI 

WISCONSIN REGIONAL WEATHER ROUNDUP
NATIONAL WEATHER SERVICE MILWAUKEE/SULLIVAN WI
100 PM CDT SAT SEP 21 2019

NOTE: "FAIR" INDICATES FEW OR NO CLOUDS BELOW 12,000 FEET WITH NO
SIGNIFICANT WEATHER AND/OR OBSTRUCTIONS TO VISIBILITY.

WIZ001-002-006>008-014>016-023>028-211900-
NORTHWEST WISCONSIN
  
CITY           SKY/WX    TMP DP  RH WIND       PRES   REMARKS
SUPERIOR ARPT  LGT RAIN  63  63 100 CALM      29.73F                  
6HR MIN TEMP:  52; 6HR MAX TEMP:  65; 6HR PCP:  0.22;                

ASHLAND        CLOUDY    74  69  85 SW14      29.80F                  
6HR MIN TEMP:  69; 6HR MAX TEMP:  76; 6HR PCP: TRACE;                

HAYWARD        PTSUNNY   73  68  84 S9        29.81F                  
6HR MIN TEMP:  69; 6HR MAX TEMP:  73; 6HR PCP:  0.02;                

SIREN          CLOUDY    71  69  93 S6        29.79R                  
CUMBERLAND     CLOUDY    72  66  83 S14       29.82F                  
RICE LAKE      CLOUDY    75  59  58 S12       29.83F                  
6HR MIN TEMP:  69; 6HR MAX TEMP:  75; 6HR PCP:  0.02;                

CHETEK         CLOUDY    74  70  85 S13G20    29.83F                  
LADYSMITH      CLOUDY    73  72  95 S9        29.87F                  
6HR MIN TEMP:  69; 6HR MAX TEMP:  73; 6HR PCP:  0.07;                

EAU CLAIRE     NOT AVBL                                               
MENOMONIE      CLOUDY    72  67  85 S14       29.82F                  
6HR MIN TEMP:  65; 6HR MAX TEMP:  73; 6HR PCP:  0.01;                

NEW RICHMOND   CLOUDY    74  67  80 S10G20    29.81R                  
OSCEOLA        CLOUDY    74  72  91 S15G21    29.81R                  
$$
 
WIZ003>005-009-010-017-018-211900-
NORTH CENTRAL WISCONSIN
  
CITY           SKY/WX    TMP DP  RH WIND       PRES   REMARKS
MANITOWISH WTR RAIN      71  71  99 S9        29.88S                  
6HR MIN TEMP:  67; 6HR MAX TEMP:  72;                                

ARBOR VITAE    CLOUDY    72  68  88 S9        29.89F                  
WOODRUFF       CLOUDY    72  68  88 S9        29.89F                  
RHINELANDER    CLOUDY    70  67  90 S8        29.92F FOG              
6HR MIN TEMP:  67; 6HR MAX TEMP:  71; 6HR PCP:  0.02;                

EAGLE RIVER    HVY RAIN  69  68  98 S3        29.91S                  
LAND O LAKES   DRIZZLE   69  67  94 S6        29.91                   
6HR MIN TEMP:  67; 6HR MAX TEMP:  75;                                

PHILLIPS       DRIZZLE   69  69 100 SW7       29.88R                  
6HR MIN TEMP:  67; 6HR MAX TEMP:  72; 6HR PCP:  0.01;                

TOMAHAWK       DRIZZLE   69  66  92 S3        29.91S                  
MEDFORD        CLOUDY    69  67  93 S9G21     29.91S                  
MERRILL        CLOUDY    71  70  98 SW6       29.92S                  
6HR MIN TEMP:  66; 6HR MAX TEMP:  71;                                

$$
 
WIZ029-030-035-036-043>047-211900-
CENTRAL WISCONSIN
  
CITY           SKY/WX    TMP DP  RH WIND       PRES   REMARKS
WAUSAU         CLOUDY    72  68  87 S13       29.91R                  
6HR MIN TEMP:  66; 6HR MAX TEMP:  72; 6HR PCP: TRACE;                

MOSINEE        CLOUDY    72  72 100 S14G20    29.93S                  
MARSHFIELD     LGT RAIN  71  68  90 SW9       29.91S FOG              
6HR MIN TEMP:  68; 6HR MAX TEMP:  72; 6HR PCP: TRACE;                

STEVENS POINT  CLOUDY    72  68  89 SW15      29.94R                  
WAUPACA        CLOUDY    76  71  82 S9G18     29.93F                  
6HR MIN TEMP:  66; 6HR MAX TEMP:  76;                                

WAUTOMA        CLOUDY    74  69  85 S7        29.94F                  
6HR MIN TEMP:  67; 6HR MAX TEMP:  74;                                

WISC RAPIDS    CLOUDY    73  68  84 SW12G21   29.93R                  
6HR MIN TEMP:  69; 6HR MAX TEMP:  74;                                

CAMP DOUGLAS   PTSUNNY   73  73 100 S9        29.92F                  
6HR MIN TEMP:  69; 6HR MAX TEMP:  73; 6HR PCP:  0.01;                

$$
 
WIZ011>013-019>022-031-037>040-048>050-211900-
NORTHEAST WISCONSIN
  
CITY           SKY/WX    TMP DP  RH WIND       PRES   REMARKS
ANTIGO         CLOUDY    70  68  92 S13       29.94S                  
6HR MIN TEMP:  64; 6HR MAX TEMP:  70;                                

SHAWANO        CLOUDY    76  70  80 S7        29.92F                  
6HR MIN TEMP:  64; 6HR MAX TEMP:  76;                                

OCONTO         CLOUDY    77  69  77 S9G17     29.93F                  
6HR MIN TEMP:  65; 6HR MAX TEMP:  78;                                

STURGEON BAY   CLOUDY    73  68  84 S13       29.96F                  
6HR MIN TEMP:  66; 6HR MAX TEMP:  76; 6HR PCP:  0.02;                

GREEN BAY      CLOUDY    76  69  79 S15G22    29.95F                  
6HR MIN TEMP:  64; 6HR MAX TEMP:  77;                                

MANITOWOC      PTSUNNY   71  66  84 S14       29.98S                  
6HR MIN TEMP:  65; 6HR MAX TEMP:  77;                                

APPLETON       PTSUNNY   75  64  69 S14G25    29.94F                  
CLINTONVILLE   CLOUDY    75  67  76 S10G17    29.93S                  
6HR MIN TEMP:  62; 6HR MAX TEMP:  76;                                

OSHKOSH        CLOUDY    75  68  78 S13       29.95F                  
6HR MIN TEMP:  68; 6HR MAX TEMP:  75;                                

$$
 
WIZ032>034-041-042-053>061-211900-
SOUTHWEST WISCONSIN
  
CITY           SKY/WX    TMP DP  RH WIND       PRES   REMARKS
LA CROSSE      LGT RAIN  73  70  88 S14       29.87F FOG              
SPARTA         CLOUDY    70  67  88 S10       29.92F                  
VIROQUA        CLOUDY    70  70 100 S9        29.93F                  
6HR MIN TEMP:  70; 6HR MAX TEMP:  71;                                

BOSCOBEL       CLOUDY    75  70  84 S12G21    29.93F                  
6HR MIN TEMP:  73; 6HR MAX TEMP:  76; 6HR PCP:  0.01;                

PRAIRIE DU CHI CLOUDY    72  69  90 S8        29.92F FOG              
PLATTEVILLE    CLOUDY    72  72 100 S15       29.99S                  
6HR MIN TEMP:  70; 6HR MAX TEMP:  73; 6HR PCP:  0.01;                

$$

WIZ056-057-062-063-064-067-068-211900-
SOUTH CENTRAL WISCONSIN
  
CITY           SKY/WX    TMP DP  RH WIND       PRES   REMARKS
REEDSBURG      CLOUDY    73  72  97 S9G16     29.95F                  
BARABOO/DELLS  CLOUDY    71  67  87 S14G21    29.95F                  
6HR MIN TEMP:  68; 6HR MAX TEMP:  73;                                

LONE ROCK      CLOUDY    74  69  85 S13G21    29.94F                  
6HR MIN TEMP:  71; 6HR MAX TEMP:  75;                                

MINERAL POINT  CLOUDY    72  72 100 S14       29.98F                  
MADISON        DRIZZLE   73  69  87 S13G23    29.98F                  
6HR MIN TEMP:  71; 6HR MAX TEMP:  76; 6HR PCP: TRACE;                

MIDDLETON      CLOUDY    74  68  80 S12       30.00S                  
WATERTOWN      CLOUDY    72  72 100 S10       30.01S                  
MONROE         CLOUDY    71  69  96 SW16G24   30.02R                  
JANESVILLE     LGT RAIN  72  72 100 S12G20    30.02F                  
$$
 
WIZ051-052-058>065-066-070>072-211900-
SOUTHEAST WISCONSIN
  
CITY           SKY/WX    TMP DP  RH WIND       PRES   REMARKS
MILWAUKEE      PTSUNNY   76  67  73 SW22G32   30.02F                  
6HR MIN TEMP:  72; 6HR MAX TEMP:  81; 6HR PCP: TRACE;                

WAUKESHA       LGT RAIN  72  66  83 S10G18    30.04S                  
MILWAUKEE/TIMM CLOUDY    75  64  69 SW13G24   30.02F                  
RACINE         LGT RAIN  73  69  87 SW13G22   30.05S                  
6HR MIN TEMP:  70; 6HR MAX TEMP:  80; 6HR PCP:  0.02;                

KENOSHA        RAIN      74  71  91 SW18G29   30.05S FOG              
6HR MIN TEMP:  73; 6HR MAX TEMP:  79; 6HR PCP:  0.02;                

FOND DU LAC    CLOUDY    77  69  76 S15G22    29.97F                  
6HR MIN TEMP:  70; 6HR MAX TEMP:  78; 6HR PCP: TRACE;                

SHEBOYGAN      CLOUDY    77  68  73 S21G31    29.98F                  
6HR MIN TEMP:  62; 6HR MAX TEMP:  79;                                

WEST BEND      CLOUDY    75  70  83 SW17      30.00F                  
JUNEAU         CLOUDY    73  69  88 S9G18     30.01S                  
6HR MIN TEMP:  69; 6HR MAX TEMP:  74;                                

$$

LSZ147-162-211900-
LAKE SUPERIOR
  
STATION/POSITION TIME  TEMP    WIND        PRES    WAVE
                       AIR SEA DIR/SP/G            HT/PER
                 (UTC) (F)     (DEG/KT/KT) (MB)    (FT/S)
W MID LAKE BUOY  1650   61 55  170/ 10/ 12 1008.3F   1/ 3
DEVILS ISLAND    1700   70     190/ 10/ 13 1008.4F
SAXON HARBOR     1730   75     200/ 10/ 20 1008.8R
$$
 
LMZ867-665-643>646-211900-
LAKE MICHIGAN
  
STATION/POSITION TIME  TEMP    WIND        PRES    WAVE
                       AIR SEA DIR/SP/G            HT/PER
                 (UTC) (F)     (DEG/KT/KT) (MB)    (FT/S)
CHAMBERS ISLAND  1740   75     130/  8/ 11   N/A
N MID LAKE BUOY  1740   67 63  180/ 17/ 23 1015.1F
NORTHPORT PIER   1740   70     140/  7/ 17 1013.9F
KEWAUNEE LAKESHO 1730   64     180/ 11/ 13 1014.9S
SHEBOYGAN LAKESH 1700   67     170/ 20/ 21 1015.7F
PORT WASHINGTON  1730   80     210/  7/ 12 1016.9S
ATWATER BUOY     1730   74 59  200/ 19/ 29 1016.8S   2/20
MILWAUKEE LAKESH 1730   77     200/ 11/ 15   N/A
S MID LAKE BUOY  1740   71 69  170/ 12/ 14 1018.5F
KENOSHA   LAKESH 1700   77     210/ 19/ 27 1017.6
$$

TC  - TEMPERATURE IN CELSIUS
VSB - VISIBILITY IN STATUTE MILES
WCI - WIND CHILL INDEX
HX  - HEAT INDEX